Location: �terpigny
(49.8910°N, 2.9249°E)
Time: 19:33:41
(UTC+00:00)

NANOSAT C BR1 - Pass Details

Date: 06 July 2022
Orbit: 584 x 599 km, 98.0° (Epoch: 17 August)

Event Time Altitude Azimuth Distance (km) Brightness Sun altitude
Rises 01:53:19 0° 16° (NNE) 2,856 ? -12.7°
Reaches altitude 10° 01:55:30 10° 19° (NNE) 1,951 ? -12.5°
Maximum altitude 01:59:43 66° 102° (ESE) 661 ? -12.2°
Enters shadow 02:03:15 14° 183° (S) 1,674 ? -11.9°
